Temperature
21 21 21 20 20 20 20 20 20 19 19 19 19 18 18 18 18 18 18 18 18 18 18 18 17 17 17 17 17 17 17 17 17 17 17 17 17 17 17 17 17 17 17
21 21 21 21 20 20 20 20 20 19 19 19 19 19 18 18 18 18 18 18 18 18 18 18 18 17 17 17 17 17 17 17 17 17 17 17 17 17 17 17 17 17 17
22 22 21 21 21 21 20 20 20 20 19 19 19 19 19 18 18 18 18 18 18 18 18 18 18 17 17 17 17 17 17 17 17 17 16 16 16 16 17 17 17 17 16
22 22 22 21 21 21 21 20 20 20 20 19 19 19 19 19 19 18 18 18 18 18 18 18 18 18 17 17 17 17 17 17 17 17 16 16 16 16 16 16 16 16 16
22 22 22 22 22 21 21 21 20 20 20 19 19 19 19 19 19 18 18 18 18 18 18 18 18 18 18 17 17 17 17 17 17 17 17 16 16 16 16 16 16 16 16
22 23 23 22 22 21 21 21 20 20 20 20 19 19 19 19 19 19 19 19 18 18 18 18 18 18 18 17 17 17 17 17 17 17 17 16 16 16 16 16 16 16 16
23 23 23 22 22 22 21 21 21 21 20 20 20 19 19 19 19 19 19 19 19 18 18 18 18 18 18 17 17 17 17 17 17 17 17 16 16 16 16 16 15 15 16
23 23 23 23 23 22 22 21 21 21 21 20 20 20 19 19 19 19 19 19 19 18 18 18 18 18 18 17 17 17 17 17 17 17 17 16 16 16 16 16 15 15 15
23 23 23 23 23 23 22 22 22 21 21 21 20 20 20 20 19 19 19 19 19 18 18 18 18 18 18 18 17 17 17 17 17 17 17 16 16 16 16 16 15 15 15
23 23 23 23 23 23 23 22 22 22 21 21 21 20 20 20 20 19 19 19 19 18 18 18 18 18 18 18 17 17 17 17 17 17 17 17 16 16 16 16 15 15 15
23 23 23 23 23 23 23 22 22 22 21 21 21 21 20 20 20 20 20 19 19 19 18 18 18 18 18 17 17 17 17 17 17 17 17 16 16 16 16 16 15 15 15
24 23 23 23 23 23 23 22 22 22 22 21 21 21 21 20 20 20 20 19 19 19 18 18 18 18 18 17 17 17 17 17 17 17 16 16 16 16 16 16 15 15 15
23 23 23 23 23 23 23 23 22 22 22 21 21 21 21 20 20 20 20 19 19 19 18 18 18 18 17 17 17 17 17 17 17 16 16 16 16 16 16 15 15 15 15
23 23 23 23 23 23 23 23 23 22 22 22 21 21 21 21 20 20 20 19 19 19 19 18 18 18 17 17 17 17 17 17 16 16 16 16 16 16 15 15 15 15 15
23 23 23 23 23 23 23 23 23 22 22 22 21 21 21 20 20 20 19 19 19 19 18 18 18 17 17 17 17 17 17 16 16 16 16 16 15 15 15 15 15 15 15
23 23 23 23 23 22 22 22 22 22 22 21 21 21 21 20 20 20 19 19 19 18 18 18 18 17 17 17 17 16 16 16 16 16 16 16 15 15 15 15 15 15 14
23 23 23 23 23 22 22 22 22 22 21 21 21 21 20 20 20 19 19 19 19 18 18 18 17 17 17 17 17 16 16 16 16 16 15 15 15 15 15 15 14 14 14
23 23 23 23 23 22 22 22 21 21 21 21 21 20 20 20 20 19 19 19 18 18 18 17 17 17 17 17 17 16 16 16 16 15 15 15 15 15 14 14 14 14 14
22 23 23 23 22 22 22 21 21 21 21 20 20 20 20 19 19 19 19 18 18 18 17 17 17 17 17 17 16 16 16 16 15 15 15 15 15 14 14 14 14 14 14
22 22 22 22 22 21 21 21 21 21 21 20 20 20 19 19 19 18 18 18 18 17 17 17 17 16 16 16 16 16 15 15 15 15 15 14 14 14 14 14 14 14 14
22 22 22 22 22 21 21 21 21 20 20 20 20 19 19 19 18 18 18 17 17 17 17 17 16 16 16 16 16 15 15 15 15 15 15 14 14 14 14 14 13 13 13
22 22 22 22 21 21 21 21 20 20 20 19 19 19 19 18 18 18 17 17 17 17 16 16 16 16 15 15 15 15 15 15 14 14 14 14 14 14 13 13 13 13 13
21 21 21 21 21 21 21 21 20 20 20 19 19 19 18 18 18 17 17 16 16 16 16 15 15 15 15 15 15 15 14 14 14 14 14 14 14 13 13 13 13 13 13
20 20 20 20 21 21 20 20 20 20 19 19 19 18 18 18 17 17 16 16 16 16 15 15 15 15 14 15 14 14 14 14 14 14 13 14 13 13 13 13 13 13 12
20 20 20 20 20 20 20 20 20 19 19 19 18 18 18 17 17 16 16 16 16 16 15 15 15 14 14 14 14 14 14 14 13 13 13 14 13 13 13 13 12 12 12
19 19 19 20 20 20 20 20 19 19 19 18 18 18 17 17 17 16 16 15 15 15 15 14 14 14 14 14 14 13 13 13 13 13 13 13 13 13 13 12 12 12 12
Wind_Speed
6 5 6 6 6 6 6 6 5 4 4 3 2 2 1 1 1 1 2 2 2 3 2 1 1 1 1 1 1 1 2 1 1 2 2 2 2 1 1 1 1 1 2
5 6 6 6 6 7 7 6 6 5 5 4 3 2 2 1 1 1 1 2 2 3 3 2 2 1 1 1 1 1 1 0 1 1 1 2 2 2 2 1 1 1 1
10 9 8 8 7 7 8 8 6 6 5 4 3 2 2 2 1 1 1 1 2 3 3 3 2 2 2 1 1 1 2 1 1 1 2 1 2 2 2 1 1 2 1
9 9 10 9 9 9 7 6 6 6 5 5 4 4 3 2 2 2 1 1 1 2 2 3 3 2 1 2 2 2 2 2 1 1 1 2 2 1 1 2 2 2 2
11 11 12 11 10 9 8 7 6 6 5 5 6 5 3 3 1 1 1 1 1 1 2 2 2 2 2 2 2 1 2 2 2 1 1 1 0 1 2 2 3 3 2
11 11 10 8 7 7 7 6 6 6 6 6 5 5 5 3 2 2 2 1 1 1 2 2 2 2 2 2 2 2 2 2 2 1 1 2 1 2 2 2 2 3 3
11 10 10 10 9 9 8 7 8 7 6 6 6 6 6 5 5 4 3 2 2 2 3 2 2 2 2 2 2 2 2 2 2 2 2 2 2 2 2 2 2 2 2
10 11 11 11 10 10 9 9 8 8 7 7 7 6 6 5 4 4 4 4 3 3 2 2 2 2 2 2 2 2 2 1 2 2 2 2 2 2 2 2 1 1 2
10 10 10 10 10 10 10 10 9 8 7 7 6 5 6 5 5 4 4 3 3 3 2 2 2 2 2 2 1 1 2 1 2 2 2 2 2 2 3 3 3 2 3
8 8 9 9 9 10 9 9 9 9 7 7 7 7 6 6 5 4 5 4 4 3 2 2 3 2 2 2 2 2 2 2 2 2 2 2 2 2 2 3 2 3 3
8 8 8 8 8 7 8 8 8 8 7 8 7 7 6 6 5 5 5 5 4 3 3 3 3 2 2 2 2 2 2 2 2 2 2 3 3 2 2 2 2 2 2
6 6 7 7 7 8 8 8 8 8 8 7 7 7 6 5 5 5 5 4 4 3 3 3 2 2 2 2 2 3 2 2 3 3 3 3 2 2 2 2 2 2 2
4 4 5 6 7 7 8 8 8 9 8 7 7 7 6 6 6 6 5 4 4 3 2 2 3 3 3 2 2 3 2 2 3 3 3 3 2 2 2 2 2 2 2
5 5 5 6 6 7 7 7 7 7 7 7 7 7 7 7 6 5 4 4 4 4 3 3 3 3 3 3 3 3 3 2 3 2 2 2 2 3 3 2 2 2 2
5 5 6 6 5 5 6 6 6 6 6 6 6 7 6 5 5 4 4 4 3 4 3 3 3 2 2 3 3 2 2 2 2 2 2 2 2 3 3 2 2 2 2
5 6 6 6 6 7 6 5 5 5 5 6 6 5 4 4 5 5 5 4 4 3 3 3 3 3 3 3 3 2 2 2 2 2 2 2 1 2 2 3 4 4 4
6 7 7 7 7 7 6 6 5 5 5 5 5 4 4 5 5 4 4 5 5 4 3 3 3 3 3 3 3 3 2 2 2 2 2 2 1 1 2 2 2 3 4
4 5 5 5 5 5 5 5 5 5 5 5 4 4 4 4 3 4 4 4 4 4 3 3 3 3 3 3 3 4 3 2 2 2 3 2 2 2 2 2 2 2 3
4 4 5 4 4 4 5 5 5 5 5 5 5 4 5 4 4 4 4 3 3 3 2 2 3 3 3 3 4 3 2 2 3 3 2 3 3 3 2 2 3 3 3
2 2 3 3 3 3 5 6 5 5 6 6 5 5 4 5 5 4 4 2 3 3 3 2 2 3 3 3 3 3 2 2 3 2 2 3 3 4 3 3 3 4 4
0 2 4 4 3 4 5 6 5 6 6 5 4 4 4 4 4 4 3 3 2 2 2 2 2 2 3 3 3 3 3 3 3 3 3 3 4 4 4 4 4 5 4
3 2 2 3 3 4 6 5 6 5 4 4 4 4 4 4 3 4 3 3 3 3 2 2 2 2 3 3 3 3 4 4 3 3 3 3 3 4 4 3 3 3 2
2 1 1 2 3 4 5 6 6 5 5 5 5 4 4 4 4 5 4 3 3 3 2 2 3 3 2 2 3 4 5 5 4 4 4 4 4 3 3 3 3 2 1
1 1 1 2 2 4 5 6 5 5 6 5 4 4 4 3 3 3 4 4 4 4 3 3 4 4 3 3 2 2 3 3 4 4 3 3 2 2 2 2 2 2 2
1 0 1 3 4 4 4 4 5 6 5 5 5 4 4 5 4 3 3 5 5 6 6 5 5 4 5 5 6 4 3 3 3 2 1 1 1 1 1 2 2 1 1
2 2 2 3 4 4 4 4 5 6 6 5 5 4 4 4 4 3 1 2 3 5 7 7 6 5 6 5 5 6 6 4 3 2 1 2 2 2 2 2 2 2 2
Wind_Direction
208 186 181 174 171 173 171 171 169 170 150 144 152 154 197 243 262 240 220 204 194 177 163 156 133 122 118 119 106 93 78 59 77 65 18 360 5 8 343 320 309 299 282
192 189 182 176 179 182 182 180 183 181 177 175 169 165 162 192 223 263 245 221 205 196 190 176 177 170 140 106 109 116 117 128 99 102 66 345 340 351 2 3 340 309 302
201 196 189 189 185 188 189 192 191 188 186 172 133 107 78 47 29 328 286 263 221 211 194 183 182 177 170 200 217 180 169 195 240 148 149 157 261 310 338 351 357 337 318
202 195 190 191 193 197 191 189 186 184 183 169 163 164 172 195 224 226 242 280 246 225 205 191 189 193 193 214 230 199 185 174 221 230 193 198 188 209 307 333 340 322 314
195 194 196 197 196 192 187 186 180 184 182 175 178 175 189 208 223 222 254 286 302 273 235 204 191 200 214 225 232 215 196 188 197 200 196 182 164 206 214 286 315 334 320
196 197 196 192 194 188 185 182 180 190 186 182 182 181 190 199 198 216 232 252 275 283 265 221 202 209 221 230 232 222 204 201 200 198 197 197 199 210 202 243 287 306 312
194 196 190 191 194 190 188 182 181 195 191 186 191 194 197 196 201 210 217 226 242 250 255 226 208 216 228 232 222 210 221 209 202 209 218 222 230 204 188 204 263 288 300
196 199 198 196 195 193 189 185 187 196 194 194 201 201 198 198 207 206 211 219 227 237 241 219 215 218 226 234 212 214 229 213 212 223 219 232 240 214 201 197 207 286 297
200 200 197 195 193 192 192 190 190 195 196 198 199 202 204 203 209 210 211 223 227 227 225 226 229 229 227 227 200 211 233 213 217 226 224 233 246 230 227 219 213 214 276
203 200 194 195 195 193 190 186 188 195 199 197 202 212 211 212 209 205 215 221 223 226 222 231 234 231 230 220 200 223 234 214 234 233 240 247 251 243 232 227 228 223 227
205 200 195 193 188 182 182 185 192 194 197 201 205 211 209 206 204 210 218 217 220 223 231 231 228 229 233 223 212 237 241 236 256 259 251 261 257 248 244 225 217 215 199
205 197 189 183 181 186 187 190 195 198 206 202 200 209 208 201 204 215 221 216 217 222 225 222 221 232 236 223 218 237 247 245 255 260 260 271 270 261 254 230 224 223 212
189 176 173 182 187 191 191 195 198 202 202 193 196 205 207 204 210 215 216 211 211 214 211 204 220 234 238 231 225 225 236 245 251 252 252 262 258 268 268 247 229 223 210
178 174 180 190 192 192 193 198 204 200 193 189 196 203 208 207 209 207 205 205 204 206 208 210 225 234 237 232 228 229 241 251 253 248 244 246 238 245 242 237 228 210 187
178 181 187 189 186 187 191 192 196 193 188 185 197 208 206 199 197 197 201 203 206 216 210 207 225 235 235 241 234 232 235 237 250 255 252 246 245 239 227 216 207 193 188
189 186 184 179 183 188 189 186 188 184 175 184 201 201 194 194 197 201 197 195 203 209 201 207 215 232 249 244 218 204 221 222 235 249 264 258 259 265 236 220 207 192 191
194 188 187 186 189 189 181 183 187 171 172 188 196 191 188 194 201 201 194 201 207 204 201 213 212 230 244 218 201 193 199 211 229 234 253 272 275 246 255 248 235 223 213
208 200 191 187 187 181 175 174 163 168 178 186 191 189 187 192 191 192 203 208 204 198 203 215 220 227 240 210 198 194 203 226 243 240 231 237 267 265 239 242 259 260 249
210 201 191 183 170 168 167 153 156 164 173 187 195 192 188 188 191 200 205 199 189 200 205 212 218 225 249 221 207 195 214 250 266 259 242 231 251 261 227 225 253 275 279
205 176 155 140 145 166 150 151 170 175 190 201 202 195 189 190 193 197 192 179 176 193 197 215 224 224 246 242 216 197 214 250 269 275 266 250 249 256 234 233 240 260 272
118 143 136 141 165 162 151 166 178 195 204 193 181 179 184 189 186 177 172 164 172 181 197 210 237 247 255 261 232 199 206 228 250 266 273 273 256 247 246 236 241 251 256
41 80 127 153 159 155 158 176 195 205 182 168 169 175 178 183 181 167 170 168 172 184 208 207 245 270 271 261 251 221 217 219 229 252 265 270 266 255 256 249 258 251 208
34 52 138 151 155 171 175 186 204 184 166 167 178 178 172 175 174 173 178 178 183 194 214 223 243 264 269 262 250 240 231 224 228 250 262 277 284 272 262 259 253 225 212
14 27 97 157 187 195 199 200 190 175 168 177 189 181 171 174 180 189 188 189 198 203 212 225 241 254 260 254 253 255 252 243 243 257 273 279 284 276 282 284 262 237 224
324 304 214 213 220 214 210 198 178 168 173 182 192 190 184 186 190 200 202 200 209 204 207 219 224 231 246 246 232 226 238 239 241 241 284 316 316 300 300 292 289 271 256
304 276 254 238 230 217 219 208 180 170 174 187 194 195 192 192 192 194 223 265 236 222 218 221 221 233 233 238 232 233 235 232 203 168 237 261 258 263 268 270 275 272 262
Height
1525 1528 1530 1532 1533 1535 1536 1538 1539 1541 1542 1543 1543 1544 1545 1546 1546 1546 1546 1547 1547 1547 1547 1547 1547 1547 1547 1547 1547 1547 1546 1546 1545 1545 1544 1544 1544 1544 1543 1543 1543 1543 1542
1524 1526 1528 1530 1532 1534 1535 1537 1538 1540 1541 1542 1543 1544 1545 1545 1546 1546 1546 1547 1547 1547 1547 1546 1547 1547 1547 1546 1546 1546 1546 1545 1545 1545 1544 1543 1544 1543 1542 1542 1542 1542 1541
1520 1523 1526 1528 1530 1532 1534 1536 1537 1539 1540 1541 1543 1543 1544 1545 1545 1546 1546 1546 1546 1546 1546 1546 1546 1546 1546 1546 1546 1546 1545 1545 1545 1544 1544 1543 1542 1542 1541 1541 1541 1540 1539
1518 1520 1523 1525 1528 1530 1533 1534 1536 1538 1539 1540 1541 1542 1543 1543 1544 1545 1545 1546 1546 1546 1546 1546 1546 1546 1546 1545 1545 1545 1544 1544 1544 1543 1543 1543 1542 1541 1540 1540 1539 1539 1538
1514 1516 1519 1522 1525 1528 1530 1532 1534 1536 1538 1539 1540 1541 1542 1543 1544 1544 1544 1545 1545 1545 1545 1545 1545 1545 1545 1544 1544 1543 1543 1543 1543 1542 1542 1541 1541 1540 1539 1538 1537 1537 1536
1510 1513 1516 1520 1523 1525 1528 1530 1532 1534 1536 1537 1538 1539 1540 1541 1542 1543 1543 1543 1544 1544 1544 1544 1544 1544 1544 1543 1543 1542 1542 1542 1541 1541 1541 1540 1539 1538 1538 1536 1535 1534 1534
1506 1510 1513 1516 1519 1522 1525 1527 1530 1532 1534 1535 1537 1538 1539 1540 1540 1541 1542 1542 1542 1542 1542 1542 1542 1542 1542 1542 1542 1541 1541 1540 1540 1540 1539 1538 1538 1537 1536 1535 1534 1532 1531
1503 1506 1509 1513 1516 1520 1523 1525 1527 1530 1532 1533 1535 1536 1537 1538 1539 1540 1540 1540 1541 1541 1541 1541 1541 1541 1541 1541 1540 1540 1539 1539 1538 1538 1537 1537 1536 1535 1535 1534 1533 1531 1530
1500 1503 1507 1510 1514 1517 1520 1523 1525 1527 1529 1531 1533 1534 1536 1536 1537 1538 1539 1539 1539 1539 1539 1539 1539 1539 1539 1539 1538 1538 1538 1537 1537 1536 1535 1535 1534 1534 1533 1532 1532 1531 1528
1498 1501 1504 1507 1510 1514 1517 1520 1522 1525 1527 1529 1530 1532 1533 1534 1535 1536 1536 1537 1537 1538 1538 1538 1538 1538 1538 1537 1536 1536 1536 1535 1535 1534 1534 1533 1532 1532 1531 1531 1530 1529 1528
1495 1498 1501 1504 1507 1511 1513 1516 1519 1522 1524 1526 1528 1529 1531 1532 1533 1534 1534 1535 1535 1536 1536 1536 1536 1536 1535 1535 1534 1534 1534 1533 1533 1532 1531 1531 1530 1529 1529 1528 1527 1527 1526
1494 1496 1498 1502 1505 1507 1510 1513 1516 1518 1521 1523 1525 1527 1528 1529 1530 1531 1532 1532 1533 1533 1533 1533 1533 1533 1533 1532 1532 1532 1531 1531 1530 1530 1529 1528 1528 1527 1526 1525 1525 1524 1523
1492 1494 1497 1499 1502 1504 1507 1510 1513 1515 1518 1520 1522 1524 1525 1526 1527 1528 1529 1530 1530 1530 1531 1531 1531 1530 1530 1530 1530 1529 1529 1528 1528 1527 1526 1526 1525 1524 1524 1523 1522 1521 1521
1490 1493 1495 1497 1500 1502 1505 1507 1510 1512 1515 1517 1519 1520 1522 1523 1524 1525 1526 1527 1527 1527 1528 1528 1528 1528 1527 1527 1527 1526 1526 1525 1525 1524 1524 1523 1522 1522 1521 1520 1519 1519 1518
1489 1491 1493 1495 1498 1500 1502 1504 1507 1509 1512 1513 1515 1516 1518 1520 1521 1522 1522 1523 1524 1524 1524 1524 1524 1525 1524 1524 1524 1523 1522 1522 1522 1521 1521 1520 1520 1519 1518 1517 1517 1516 1516
1487 1489 1491 1493 1495 1497 1499 1502 1504 1507 1508 1510 1512 1514 1515 1516 1517 1518 1519 1520 1520 1521 1521 1521 1521 1521 1521 1521 1521 1520 1519 1519 1519 1518 1518 1517 1517 1516 1515 1515 1514 1514 1513
1485 1487 1489 1490 1493 1495 1497 1499 1502 1504 1506 1507 1509 1510 1511 1513 1514 1515 1516 1516 1517 1517 1517 1517 1518 1518 1518 1518 1518 1517 1517 1516 1516 1515 1515 1514 1513 1513 1512 1512 1511 1511 1510
1484 1485 1487 1489 1491 1493 1496 1498 1500 1502 1503 1505 1506 1507 1508 1509 1510 1512 1512 1513 1513 1514 1514 1514 1515 1515 1515 1515 1515 1514 1514 1513 1513 1512 1512 1511 1510 1510 1509 1509 1508 1507 1506
1483 1484 1486 1487 1489 1492 1494 1495 1497 1499 1500 1502 1503 1504 1505 1506 1507 1508 1509 1510 1511 1511 1512 1512 1512 1512 1512 1512 1512 1512 1511 1510 1509 1509 1509 1508 1507 1507 1507 1506 1504 1503 1503
1482 1483 1484 1486 1488 1490 1491 1493 1495 1496 1497 1499 1500 1502 1503 1504 1505 1506 1507 1507 1508 1508 1509 1509 1509 1509 1509 1509 1509 1509 1508 1507 1506 1506 1505 1505 1504 1504 1503 1502 1501 1499 1499
1481 1482 1483 1484 1486 1488 1490 1491 1493 1494 1495 1497 1498 1499 1500 1501 1502 1503 1504 1504 1505 1505 1505 1505 1506 1506 1506 1506 1506 1505 1505 1504 1503 1502 1502 1502 1501 1501 1500 1499 1498 1496 1496
1479 1480 1482 1483 1485 1486 1488 1489 1490 1492 1494 1495 1495 1497 1498 1499 1500 1501 1501 1502 1502 1502 1501 1502 1502 1502 1503 1503 1503 1502 1502 1501 1500 1499 1499 1498 1498 1497 1497 1496 1495 1494 1493
1479 1479 1480 1481 1483 1485 1486 1487 1489 1490 1491 1492 1493 1494 1495 1496 1497 1498 1498 1499 1499 1499 1498 1499 1498 1499 1499 1499 1499 1499 1498 1498 1497 1496 1496 1495 1495 1494 1494 1493 1492 1491 1490
1478 1478 1479 1480 1481 1483 1485 1486 1487 1488 1488 1489 1490 1491 1492 1492 1494 1495 1495 1495 1495 1495 1495 1495 1495 1496 1496 1496 1495 1495 1495 1494 1494 1493 1493 1492 1492 1491 1490 1490 1489 1488 1487
1477 1478 1478 1478 1479 1481 1482 1483 1484 1485 1485 1487 1488 1488 1489 1490 1491 1491 1491 1491 1492 1492 1493 1492 1493 1493 1492 1492 1493 1492 1492 1491 1491 1490 1489 1488 1488 1487 1486 1486 1485 1484 1483
1476 1476 1476 1476 1477 1478 1479 1480 1481 1482 1483 1483 1484 1485 1485 1486 1487 1487 1488 1488 1489 1489 1490 1490 1490 1490 1490 1490 1490 1490 1489 1488 1488 1487 1485 1484 1484 1483 1482 1482 1481 1480 1479